Regional Weather Roundup
Issued by NWS

Home | Current Version | Previous Version | Graphics & Text | Print | Product List | Glossary On
Versions: 1 2 3 4 5 6 7 8 9 10 11 12 13 14 15 16 17 18 19 20 21 22 23 24 25 26 27 28 29 30 31 32 33 34 35 36 37 38 39 40 41 42 43 44 45
000
ASUS45 KCYS 021510
RWRWY

WYOMING REGIONAL WEATHER ROUNDUP
NATIONAL WEATHER SERVICE CHEYENNE WY
900 AM MDT SUN AUG 02 2015

NOTE:  "FAIR" INDICATES FEW OR NO CLOUDS BELOW 12,000 FEET
WITH NO SIGNIFICANT WEATHER AND/OR OBSTRUCTIONS TO VISIBILITY.

WYZ001-021600-
YELLOWSTONE NATIONAL PARK

CITY           SKY/WX    TMP DP  RH WIND       PRES   REMARKS
LK YELLOWSTONE   N/A     57  46  66 E3        30.36R
W YELLOWSTONE  NOT AVBL

$$
WYZ002>013-054>058-071-098>099-021600-
NORTHERN WYOMING

CITY           SKY/WX    TMP DP  RH WIND       PRES   REMARKS
JACKSON        SUNNY     55  37  50 CALM      30.27R
CODY           FAIR      73  43  33 CALM      30.12R
GREYBULL       FAIR      69  34  27 CALM      30.03R
WORLAND        FAIR      68  35  29 SW5       30.04R
SHERIDAN       FAIR      72  48  42 SE5       30.02R
BUFFALO        FAIR      82  45  27 CALM      30.07S
GILLETTE       FAIR      79  40  24 NE7       30.03R
HULETT         FAIR      70  50  49 NE7       30.03S
NEWCASTLE      FAIR      73  54  49 MISG      30.04R

$$
WYZ014>020-022>026-101>103-021600-
CENTRAL WYOMING

CITY           SKY/WX    TMP DP  RH WIND       PRES   REMARKS
BIG PINEY      FAIR      61  39  44 CALM      30.27S
PINEDALE       FAIR      63  36  36 MISG      30.28R
DUBOIS         FAIR      61  32  33 NW10      30.28S
LANDER         FAIR      70  34  26 E3        30.14R
RIVERTON       FAIR      71  33  24 NW13      30.14S
CASPER         FAIR      73  32  22 SW9       30.12R
DOUGLAS        FAIR      73  40  30 NW5       30.10R

$$
WYZ021-027>030-104>119-021600-
SOUTHERN WYOMING

CITY           SKY/WX    TMP DP  RH WIND       PRES   REMARKS
EVANSTON       FAIR      67  30  25 N5        30.25R
KEMMERER       FAIR      64  32  29 N3        30.26S
FORT BRIDGER   SUNNY     70  30  23 MISG      30.27S
ROCK SPRINGS   FAIR      64  33  31 CALM      30.23R
DIXON          FAIR      69  40  34 E5        30.25R
RAWLINS        FAIR      70  39  32 CALM      30.25R
SARATOGA       FAIR      66  43  42 CALM      30.26S
LARAMIE        FAIR      64  43  46 CALM      30.26R
CHEYENNE       FAIR      78  53  41 CALM      30.15S
TORRINGTON     FAIR      71  57  61 NW5       30.03R
PINE BLUFFS    FAIR      72  54  53 CALM      30.10F

$$



USA.gov is the U.S. government's official web portal to all federal, state and local government web resources and services.